Skip Page Navigation
NASA JPL Caltech
NASA Logo - Jet Propulsion Laboratory + View the NASA Portal
+ Center for Near-Earth Object Studies
JPL Home Earth Solar System Stars & Galaxies Technology
JPL Solar System Dynamics
BODIES ORBITS EPHEMERIDES TOOLS PHYSICAL DATA DISCOVERY FAQ SITE MAP
IMPORTANT: The SSD Announcement email list is now available. Major changes are coming in the near future, including possible hostname and/or URL changes. To be notified of such changes, subscribe to this email list.

Please visit this page for more details.


JPL Small-Body Database Browser
Search: [ help ]  
183543 (2003 HN25)
Classification: Main-belt Asteroid          SPK-ID: 2183543
Ephemeris | Orbit Diagram | Orbital Elements | Mission Design | Physical Parameters | Discovery Circumstances | Close-Approach Data ]

[ show orbit diagram ]
Orbital Elements at Epoch 2458600.5 (2019-Apr-27.0) TDB
Reference: JPL 11 (heliocentric ecliptic J2000)
 Element Value Uncertainty (1-sigma)   Units 
e .05139058469793968 5.6934e-08  
a 2.935851277043086 3.6787e-08 au
q 2.784976163329649 1.6502e-07 au
i 1.759701388310937 6.7469e-06 deg
node 181.8354473531986 0.00021623 deg
peri 55.62162745981807 0.00022907 deg
M 37.96699769847724 7.2251e-05 deg
tp 2458406.722539826985
(2018-Oct-15.22253983)
0.00036886 TDB
period 1837.382197462597
5.03
3.4534e-05
9.455e-08
d
yr
n .1959309285227405 3.6826e-09 deg/d
Q 3.086726390756523 3.8677e-08 au
  Orbit Determination Parameters
   # obs. used (total)      167  
   data-arc span      6395 days (17.51 yr)  
   first obs. used      2000-10-19  
   last obs. used      2018-04-23  
   planetary ephem.      DE431  
   SB-pert. ephem.      SB431-N16  
   condition code      0  
   norm. resid. RMS      .5999  
   source      ORB  
   producer      Otto Matic  
   solution date      2018-May-07 05:56:29  

Additional Information
 Earth MOID = 1.77327 au 
 Jupiter MOID = 1.89751 au 
 T_jup = 3.272 
[ show covariance matrix ]

Ephemeris | Orbit Diagram | Orbital Elements | Mission Design | Physical Parameters | Discovery Circumstances | Close-Approach Data ]

Physical Parameter Table
Parameter Symbol Value Units Sigma Reference Notes
absolute magnitude H 16.4   n/a MPO440025  

183543 (2003 HN25)          Discovered 2003-Apr-25 by Spacewatch at Kitt Peak
Reference: 20080420/Numbers.arcLast Updated: 2008-04-23

[ show close-approach data ]
Alternate Designations
 2003 HN25 = 2005 TK58 
Ephemeris | Orbit Diagram | Orbital Elements | Mission Design | Physical Parameters | Discovery Circumstances | Close-Approach Data ]
ABOUT SSD CREDITS/AWARDS PRIVACY/COPYRIGHT GLOSSARY LINKS
FirstGov
(server date/time)  
NASA Home Page
Site Manager:   Ryan S. Park
Webmaster  Alan B. Chamberlin